User: anonymous   Login
Location: Chanteloup
(48.8560°N, 2.7390°E)
Time: 00:20:28
(UTC+00:00)
Language:

NOSS 8 (H) - Orbit

View from above orbital plane
View from above orbital plane
View from above satellite
View from above satellite

Ground track
Ground track

The orbit data is extracted from the following two-line orbital elements,

1 18025U 87043H   22020.55898548  .00002736  00000-0  20321-3 0  9995
2 18025  63.2967  46.5120 0952987  71.3781 298.8235 13.47674554131958
Epoch (UTC): 20 January 2022 13:24:56
Eccentricity: 0.0952987
inclination: 63.2967°
perigee height: 370 km
apogee height: 1791 km
right ascension of ascending node: 46.5120°
argument of perigee: 71.3781°
revolutions per day: 13.47674554
mean anomaly at epoch: 298.8235°
orbit number at epoch: 13195

The dashed part of the orbit path shows where the satellite is in the earth's shadow,  

DLR